Regional Weather Roundup
Issued by NWS Cleveland, OH

Home | Current Version | Previous Version | Graphics & Text | Print | Product List | Glossary On
Versions: 1 2 3 4 5 6 7 8 9 10 11 12 13 14 15 16 17 18 19 20 21 22 23 24 25 26 27 28 29 30 31 32 33 34 35 36 37 38 39 40 41 42 43 44 45 46 47 48 49 50
000
ASUS41 KCLE 031810
RWRCLE
OHIO REGIONAL WEATHER ROUNDUP
NATIONAL WEATHER SERVICE WILMINGTON, OH
200 PM EDT THU SEP 03 2015

NOTE: "FAIR" INDICATES FEW OR NO CLOUDS BELOW 12,000 FEET WITH NO
SIGNIFICANT WEATHER AND/OR OBSTRUCTIONS TO VISIBILITY.

OHZ001>008-015>018-024>027-034-035-043-044-031900-
   NORTHWEST OHIO

CITY           SKY/WX    TMP DP  RH WIND       PRES   REMARKS
DEFIANCE       MOSUNNY   89  64  43 VRB6      29.96F HX  90
FINDLAY        MOSUNNY   89  69  51 W12       29.96F HX  93
TOLEDO EXPRESS MOSUNNY   88  69  53 SW10      29.94F HX  92
TOLEDO EXEC    SUNNY     88  68  51 W10       29.94F HX  91
LIMA           SUNNY     88  68  51 SW14      29.99F HX  91
$$

OHZ009>014-019>023-028>033-038-089-031900-
   NORTHEAST OHIO

CITY           SKY/WX    TMP DP  RH WIND       PRES   REMARKS
CLE-HOPKINS    MOSUNNY   88  68  51 W7        29.98F HX  91
CLE-LAKEFRONT  SUNNY     82  72  71 NW5       29.96F
CUY CO. ARPT   MOSUNNY   86  72  62 NW12      29.99S HX  92
LORAIN-ELYRIA  MOSUNNY   86  69  56 W7        29.96F HX  90
ASHTABULA      NOT AVBL
AKRON-CANTON   PTSUNNY   88  66  48 W10       29.99F HX  90
WOOSTER        PTSUNNY   88  67  49 W7        29.99F HX  91
MANSFIELD      MOSUNNY   88  67  49 VRB6      29.99F HX  91
YOUNGSTOWN     PTSUNNY   86  67  52 W6        29.98F
$$

OHZ042-051>053-060>062-070>072-077>081-031900-
  SOUTHWEST OHIO

CITY           SKY/WX    TMP DP  RH WIND       PRES   REMARKS
CINC-COVINGTON MOSUNNY   88  67  49 W5        30.02F HX  91
CINC-LUNKEN    MOSUNNY   89  67  47 W6        30.00F HX  92
HAMILTON       PTSUNNY   91  67  44 W5        30.01F HX  94
DAYTON         MOSUNNY   89  66  46 W8        30.02F HX  91
WRIGHT-PAT AFB MOSUNNY   88  68  50 SW8       29.99F HX  91
DAYTON GENERAL MOSUNNY   87  67  51 NW8       30.01F HX  90
WILMINGTON     SUNNY     87  68  52 MISG      30.01F HX  90
$$

OHZ036-037-039>041-045>050-054>059-063>069-073>076-082>088-031900-
  CENTRAL AND SOUTHEAST OHIO

CITY           SKY/WX    TMP DP  RH WIND       PRES   REMARKS
COLUMBUS       PTSUNNY   81  66  60 S12       29.99F
OSU AIRPORT    PTSUNNY   88  69  53 W8        29.99F HX  92
BOLTON FIELD   PTSUNNY   88  72  58 W5        30.00F HX  94
RICKENBACK AFB MOSUNNY   83  70  62 W6        29.99F
NEWARK         SUNNY     87  68  52 NW6       29.98F HX  90
MARION         SUNNY     80  68  66 S12       29.99F
LANCASTER      MOSUNNY   88  68  51 VRB3      29.99F HX  91
ZANESVILLE     MOSUNNY   90  65  43 MISG      29.99F HX  92
NEW PHILLY     NOT AVBL
$$


USA.gov is the U.S. government's official web portal to all federal, state and local government web resources and services.